Location: *
(49.0044°N, 9.5056°E)
Time: 15:24:57
(UTC+00:00)

Cosmos 1603 - Pass Details

Date: 22 September 2019
Orbit: 831 x 860 km, 71.0° (Epoch: 20 October)

Event Time Altitude Azimuth Distance (km) Brightness Sun altitude
Rises 19:10:18 0° 334° (NNW) 3,408 7.6 -18.3°
Reaches altitude 10° 19:12:57 10° 343° (NNW) 2,474 6.7 -18.7°
Maximum altitude 19:18:11 37° 50° (NE) 1,309 4.5 -19.5°
Enters shadow 19:19:41 31° 82° (E) 1,443 4.5 -19.7°
